STARLINK-32225, 62036

Orbit data source: Space-Track

STARLINK-32225, 62036 is a payload satellite owned by SpaceX/Seattle (US) in LEO that was launched on Thu, 21 Nov 2024 UTC via an FALCON 9 launch vehicle from the Air Force Eastern Test Range (AFETR). Payload-class satellites include a variety of spacecraft equipped with specific instruments for various scientific and technological missions. These include communications satellites like Starlink; space stations such as the ISS; scientific satellites like the Hubble; Earth observation satellites from companies like Planet Labs, Umbra, and HawkEye 360; GPS; miniature CubeSats for education and research; and military/defense satellites.

Loading next visibility...
Identifier
62036, 2024-216E
Orbit
LEO
Last TLE update
19 hours ago
Origin
Manufacturer
SpaceX/Seattle
Mission
Operational Commercial Communications
Bus & Motor
STARLINK V2M, Unknown motor
Mass
730 kg wet, ~700 kg dry
Launch date (UTC)
2024-11-21 (6 months ago)
Launch vehicle
FALCON 9
Launch site
Air Force Eastern Test Range (AFETR)
Object type
Payload
Rocket body
Debris
Shape & HBR
Box + 2 Pan, 29 m
Radar Cross Section
36.964 m², Large (>1 m²)

Expand to show TLE details & history

TLE from 19 hours ago
0 STARLINK-32225
1 62036U 24216E   25128.45174484 -.00000036  00000-0  64227-5 0  9993
2 62036  43.0033 186.1941 0001938 278.2347  81.8289 15.40693513 27198
Epoch: 2025-05-08T10:50Z
Definitive object data (Epoch: 2025-05-08T10:50:30.754Z)
Latitude
-0.00005°
Longitude
157.04386°
Altitude
443.648 km
Speed
7.648 km/s
True Right ascension
12h 24m 46s
True Declination
0° 00' 00"
Sunlit
Object was in full shadow at TLE epoch
Visualization TLE readout
Latitude
29.43219°
Longitude
-64.56456°
Altitude
445.678 km
Speed
7.649 km/s
Apparent Right ascension
23h 41m 06s
Apparent Declination
-4° 41' 50"
Sunlit
Object is in daylight
Visualization observer readout
Local Sidereal Time
14:14:17
Azimuth
54.59° ENE
Elevation
-40.728°
Doppler factor
1
Orbital elements
Apogee altitude
447.34 km
Perigee altitude
444.694 km
Semi-major axis
6,824.154 km
Eccentricity
0.0001938
Inclination
43.0033°
RAAN
186.1941°
Arg. of periapsis
278.2347°
True anomaly
81.85088°
Mean anomaly
81.8289°
Eccentric anomaly
81.83989°
Mean motion
3.85008 °/min
BSTAR
0.0000064227
Orbital period
93.5 mins
Loading maneuver chart data...
Loading SW <> Apogee altitude chart data...
Loading historical data...
Loading historical data...
Loading historical data...
Loading historical data...
Loading historical data...
Loading historical data...
Loading historical data...

STARLINK-32225 Visibility forecast

Observer location: undefined°, undefined°

Span
Click to sort rows by Start time (UTC) header in descending order
Start Az.
Max El. time (UTC)
Max El. Az.
Max El.
End time (UTC)
End Az.
5 mins2025-05-09 07:17:31.045Z221.319° SW2025-05-09 07:19:31.045Z176.783° S34.226°2025-05-09 07:22:31.045Z83.909° E
4 mins2025-05-09 08:56:31.045Z282.333° WNW2025-05-09 08:57:31.045Z312.504° NW38.321°2025-05-09 09:00:31.045Z66.851° ENE
5 mins2025-05-09 10:34:31.045Z298.985° NW2025-05-09 10:36:31.045Z23.464° NE38.818°2025-05-09 10:39:31.045Z86.051° E
5 mins2025-05-09 12:12:31.045Z274.592° WNW2025-05-09 12:14:31.045Z197.391° SSW39.261°2025-05-09 12:17:31.045Z127.846° SE
|